Weather History for Highgate, VT

Change the Weather History Date:

Sunday, September 9, 2012

  Actual Average (KPBG) Record (KPBG)
Temperature  
Mean Temperature 58 °F 62 °F  
Max Temperature 69 °F 74 °F 88 °F (1959)
Min Temperature 49 °F 50 °F 38 °F (1956)
Degree Days  
Heating Degree Days 6 4  
Month to date heating degree days 30  
Since 1 July heating degree days 71  
Cooling Degree Days 0 1  
Month to date cooling degree days 15  
Year to date cooling degree days 337  
Growing Degree Days 8 (Base 50)    
Moisture  
Dew Point 47 °F    
Average Humidity 65    
Maximum Humidity 90    
Minimum Humidity 44    
Precipitation  
Precipitation 0.00 in - 0.48 in (1969)
Month to date precipitation  
Year to date precipitation  
Sea Level Pressure  
Sea Level Pressure 29.84 in    
Wind  
Wind Speed 4 mph (WNW)    
Max Wind Speed 10 mph    
Max Gust Speed 20 mph    
Visibility 10 miles    
Events      
T = Trace of Precipitation, MM = Missing Value Source: NWS Daily Summary

Daily Weather History Graph

Daily Weather History Graph

Search for Another Location

Airport:

Trip Planner

Search our weather history database for the weather conditions in past years. The results will help you decide how hot, cold, wet, or windy it might be!

Date:

Astronomy

Sep. 09, 2012 Rise Set
Actual Time 6:24 AM EDT 7:13 PM EDT
Civil Twilight 5:54 AM EDT 7:43 PM EDT
Nautical Twilight 5:19 AM EDT 8:18 PM EDT
Astronomical Twilight 4:42 AM EDT 8:55 PM EDT
Moon No Moon Rise 3:08 PM EDT (9/9)
Length of Visible Light 13h 48m
Length of Day
12h 49m
Last Quarter, 39% of the Moon is Illuminated
Sep 9
Last Quarter
Sep 15
New
Sep 22
First Quarter
Sep 29
Full
Oct 8
Last Quarter

Hourly Weather History & Observations

Time (EDT) Temp. Dew Point Humidity Pressure Visibility Wind Dir Wind Speed Gust Speed Precip Events Conditions
12:15 AM 55.8 °F 48.2 °F 76% 29.71 in 10.0 mi WSW 10.4 mph - N/A   Overcast
12:55 AM 56.7 °F 48.2 °F 73% 29.74 in 10.0 mi West 6.9 mph 19.6 mph N/A   Overcast
1:15 AM 56.3 °F 48.2 °F 74% 29.75 in 10.0 mi West 8.1 mph - N/A   Overcast
2:15 AM 56.5 °F 46.9 °F 70% 29.75 in 10.0 mi WSW 4.6 mph - N/A   Overcast
2:35 AM 55.4 °F 45.7 °F 70% 29.75 in 10.0 mi West 6.9 mph - N/A   Overcast
2:55 AM 54.5 °F 45.0 °F 70% 29.75 in 10.0 mi West 6.9 mph - N/A   Overcast
3:15 AM 54.5 °F 45.7 °F 72% 29.75 in 10.0 mi West 4.6 mph - N/A   Scattered Clouds
3:35 AM 54.5 °F 45.7 °F 72% 29.76 in 10.0 mi West 3.5 mph - N/A   Mostly Cloudy
3:55 AM 54.5 °F 45.9 °F 73% 29.77 in 10.0 mi West 3.5 mph - N/A   Mostly Cloudy
4:15 AM 54.3 °F 46.0 °F 74% 29.77 in 10.0 mi Calm Calm - N/A   Overcast
4:35 AM 54.5 °F 46.4 °F 74% 29.78 in 10.0 mi Calm Calm - N/A   Overcast
4:55 AM 54.5 °F 46.2 °F 74% 29.78 in 10.0 mi Calm Calm - N/A   Overcast
5:15 AM 54.5 °F 46.4 °F 74% 29.79 in 10.0 mi Calm Calm - N/A   Overcast
5:35 AM 53.2 °F 45.3 °F 74% 29.79 in 10.0 mi Calm Calm - N/A   Mostly Cloudy
5:55 AM 51.8 °F 45.0 °F 77% 29.80 in 10.0 mi Calm Calm - N/A   Clear
6:15 AM 51.8 °F 46.6 °F 82% 29.81 in 10.0 mi Calm Calm - N/A   Clear
6:35 AM 51.8 °F 46.8 °F 83% 29.81 in 10.0 mi Calm Calm - N/A   Clear
7:35 AM 51.8 °F 49.1 °F 90% 29.82 in 10.0 mi Calm Calm - N/A   Mostly Cloudy
8:15 AM 54.5 °F 48.2 °F 79% 29.83 in 10.0 mi Calm Calm - N/A   Overcast
8:35 AM 54.5 °F 46.2 °F 74% 29.83 in 10.0 mi Calm Calm - N/A   Overcast
9:15 AM 55.0 °F 47.1 °F 75% 29.84 in 10.0 mi Calm Calm - N/A   Overcast
9:35 AM 56.8 °F 48.4 °F 73% 29.84 in 10.0 mi Calm Calm - N/A   Overcast
9:55 AM 56.8 °F 48.0 °F 72% 29.85 in 10.0 mi West 4.6 mph - N/A   Overcast
10:15 AM 58.3 °F 46.0 °F 64% 29.85 in 10.0 mi West 3.5 mph - N/A   Overcast
10:35 AM 59.0 °F 46.0 °F 62% 29.85 in 10.0 mi West 5.8 mph - N/A   Mostly Cloudy
10:55 AM 59.2 °F 46.4 °F 63% 29.85 in 10.0 mi West 5.8 mph - N/A   Scattered Clouds
11:15 AM 61.5 °F 46.6 °F 58% 29.86 in 10.0 mi WSW 4.6 mph - N/A   Scattered Clouds
11:35 AM 61.9 °F 46.6 °F 57% 29.86 in 10.0 mi WSW 6.9 mph - N/A   Scattered Clouds
12:15 PM 67.1 °F 48.0 °F 50% 29.85 in 10.0 mi WSW 6.9 mph - N/A   Mostly Cloudy
12:35 PM 65.7 °F 48.0 °F 53% 29.85 in 10.0 mi West 4.6 mph - N/A   Overcast
12:55 PM 63.5 °F 45.5 °F 52% 29.85 in 10.0 mi West 3.5 mph - N/A   Scattered Clouds
1:15 PM 67.1 °F 45.7 °F 46% 29.85 in 10.0 mi WNW 4.6 mph - N/A   Scattered Clouds
1:35 PM 67.1 °F 45.3 °F 45% 29.85 in 10.0 mi WSW 5.8 mph - N/A   Clear
1:55 PM 67.1 °F 45.7 °F 46% 29.85 in 10.0 mi NNW 3.5 mph - N/A   Clear
2:15 PM 67.1 °F 45.1 °F 45% 29.85 in 10.0 mi WSW 8.1 mph - N/A   Scattered Clouds
2:35 PM 68.0 °F 45.5 °F 44% 29.84 in 10.0 mi NW 8.1 mph - N/A   Scattered Clouds
2:55 PM 68.2 °F 45.5 °F 44% 29.84 in 10.0 mi NNW 3.5 mph - N/A   Mostly Cloudy
3:15 PM 67.3 °F 45.0 °F 45% 29.84 in 10.0 mi West 4.6 mph - N/A   Mostly Cloudy
3:35 PM 67.1 °F 47.5 °F 49% 29.84 in 10.0 mi North 4.6 mph - N/A   Mostly Cloudy
3:55 PM 67.1 °F 48.0 °F 50% 29.85 in 10.0 mi West 3.5 mph - N/A   Overcast
4:15 PM 67.1 °F 46.9 °F 48% 29.85 in 10.0 mi NNW 6.9 mph - N/A   Overcast
4:35 PM 67.1 °F 48.0 °F 50% 29.85 in 10.0 mi NNW 4.6 mph - N/A   Overcast
4:55 PM 67.1 °F 47.7 °F 50% 29.85 in 10.0 mi NNW 3.5 mph - N/A   Overcast
5:15 PM 67.1 °F 46.4 °F 47% 29.85 in 10.0 mi NW 4.6 mph - N/A   Overcast
5:35 PM 67.1 °F 46.8 °F 48% 29.85 in 10.0 mi NW 5.8 mph - N/A   Mostly Cloudy
5:55 PM 67.1 °F 46.8 °F 48% 29.86 in 10.0 mi NW 5.8 mph - N/A   Scattered Clouds
6:15 PM 64.2 °F 45.0 °F 50% 29.86 in 10.0 mi NW 4.6 mph - N/A   Scattered Clouds
6:35 PM 64.4 °F 45.7 °F 51% 29.87 in 10.0 mi NW 5.8 mph - N/A   Mostly Cloudy
6:55 PM 61.0 °F 44.8 °F 55% 29.87 in 10.0 mi NNW 3.5 mph - N/A   Mostly Cloudy
7:15 PM 59.2 °F 46.4 °F 63% 29.88 in 10.0 mi NNW 4.6 mph - N/A   Scattered Clouds
7:35 PM 58.1 °F 46.0 °F 64% 29.89 in 10.0 mi NNW 5.8 mph - N/A   Clear
7:55 PM 56.8 °F 45.5 °F 66% 29.89 in 10.0 mi NNW 3.5 mph - N/A   Clear
8:15 PM 56.8 °F 45.9 °F 67% 29.90 in 10.0 mi NNW 3.5 mph - N/A   Clear
8:35 PM 56.7 °F 46.2 °F 68% 29.91 in 10.0 mi Calm Calm - N/A   Clear
8:55 PM 54.5 °F 44.8 °F 70% 29.91 in 10.0 mi Calm Calm - N/A   Clear
9:15 PM 54.5 °F 45.5 °F 72% 29.91 in 10.0 mi Calm Calm - N/A   Clear
9:35 PM 51.8 °F 45.5 °F 79% 29.92 in 10.0 mi Calm Calm - N/A   Clear
9:55 PM 51.8 °F 46.6 °F 82% 29.91 in 10.0 mi Calm Calm - N/A   Clear
10:15 PM 51.8 °F 46.8 °F 83% 29.91 in 10.0 mi Calm Calm - N/A   Scattered Clouds
10:35 PM 51.8 °F 47.5 °F 85% 29.91 in 10.0 mi Calm Calm - N/A   Scattered Clouds
10:55 PM 49.6 °F 46.0 °F 87% 29.92 in 10.0 mi Calm Calm - N/A   Scattered Clouds
11:15 PM 51.8 °F 48.9 °F 90% 29.91 in 10.0 mi Calm Calm - N/A   Overcast
11:35 PM 51.8 °F 48.7 °F 89% 29.92 in 10.0 mi Calm Calm - N/A   Mostly Cloudy